Time,TemperatureF,DewpointF,PressureIn,WindDirection,WindDirectionDegrees,WindSpeedMPH,WindSpeedGustMPH,Humidity,HourlyPrecipIn,Conditions,Clouds,dailyrainin,SoftwareType,DateUTC
2015-08-01 00:04:00,69.8,55.2,29.84,SSE,157,0.0,0.0,60,0.00,,,0.00,meteobridge,2015-08-01 07:04:00,
2015-08-01 00:09:00,69.6,55.6,29.85,SSE,157,0.0,0.0,61,0.00,,,0.00,meteobridge,2015-08-01 07:09:00,
2015-08-01 00:14:00,69.6,55.0,29.85,SSE,157,0.0,0.0,60,0.00,,,0.00,meteobridge,2015-08-01 07:14:00,
2015-08-01 00:19:00,69.6,55.6,29.85,SSE,157,0.0,0.0,61,0.00,,,0.00,meteobridge,2015-08-01 07:19:00,
2015-08-01 00:24:00,69.4,55.4,29.85,SSE,157,0.0,0.0,61,0.00,,,0.00,meteobridge,2015-08-01 07:24:00,
2015-08-01 00:29:00,69.4,55.4,29.85,SSE,157,0.0,0.0,61,0.00,,,0.00,meteobridge,2015-08-01 07:29:00,
2015-08-01 00:34:00,69.3,55.2,29.85,SSE,157,0.0,0.0,61,0.00,,,0.00,meteobridge,2015-08-01 07:34:00,
2015-08-01 00:39:00,69.3,55.2,29.85,SSE,157,0.0,0.0,61,0.00,,,0.00,meteobridge,2015-08-01 07:39:00,
2015-08-01 00:44:00,69.3,55.2,29.85,SSE,157,0.0,0.0,61,0.00,,,0.00,meteobridge,2015-08-01 07:44:00,
2015-08-01 00:49:00,69.3,55.8,29.85,SSE,157,0.0,0.0,62,0.00,,,0.00,meteobridge,2015-08-01 07:49:00,
2015-08-01 00:54:00,69.1,55.6,29.84,SSE,157,0.0,0.0,62,0.00,,,0.00,meteobridge,2015-08-01 07:54:00,
2015-08-01 00:59:00,69.1,55.0,29.84,SSE,157,0.0,0.0,61,0.00,,,0.00,meteobridge,2015-08-01 07:59:00,
2015-08-01 01:04:00,68.9,54.9,29.84,SSE,157,0.0,0.0,61,0.00,,,0.00,meteobridge,2015-08-01 08:04:00,
2015-08-01 01:09:00,68.9,54.9,29.84,SSE,157,0.0,0.0,61,0.00,,,0.00,meteobridge,2015-08-01 08:09:00,
2015-08-01 01:15:00,68.9,54.9,29.84,SSE,157,0.0,0.0,61,0.00,,,0.00,meteobridge,2015-08-01 08:15:00,
2015-08-01 01:20:00,68.7,54.7,29.84,SSE,157,0.0,0.0,61,0.00,,,0.00,meteobridge,2015-08-01 08:20:00,
2015-08-01 01:25:00,68.7,55.2,29.83,SSE,157,0.0,0.0,62,0.00,,,0.00,meteobridge,2015-08-01 08:25:00,
2015-08-01 01:30:00,68.5,54.5,29.83,SSE,157,0.0,0.0,61,0.00,,,0.00,meteobridge,2015-08-01 08:30:00,
2015-08-01 01:35:00,68.5,54.5,29.83,SSE,157,0.0,0.0,61,0.00,,,0.00,meteobridge,2015-08-01 08:35:00,
2015-08-01 01:40:00,68.5,54.5,29.83,SSE,157,0.0,0.0,61,0.00,,,0.00,meteobridge,2015-08-01 08:40:00,
2015-08-01 01:45:00,68.5,54.5,29.83,SSE,157,0.0,0.0,61,0.00,,,0.00,meteobridge,2015-08-01 08:45:00,
2015-08-01 01:50:00,68.5,54.5,29.83,SSE,157,0.0,0.0,61,0.00,,,0.00,meteobridge,2015-08-01 08:50:00,
2015-08-01 01:55:00,68.5,54.5,29.83,SSE,157,0.0,0.0,61,0.00,,,0.00,meteobridge,2015-08-01 08:55:00,
2015-08-01 02:00:00,68.5,54.5,29.83,SSE,157,0.0,0.0,61,0.00,,,0.00,meteobridge,2015-08-01 09:00:00,
2015-08-01 02:05:00,68.5,54.5,29.83,SSE,157,0.0,0.0,61,0.00,,,0.00,meteobridge,2015-08-01 09:05:00,
2015-08-01 02:10:00,68.5,54.5,29.83,SSE,157,0.0,0.0,61,0.00,,,0.00,meteobridge,2015-08-01 09:10:00,
2015-08-01 02:15:00,68.5,54.5,29.83,SSE,157,0.0,0.0,61,0.00,,,0.00,meteobridge,2015-08-01 09:15:00,
2015-08-01 02:20:00,68.7,54.7,29.83,SSE,157,0.0,0.0,61,0.00,,,0.00,meteobridge,2015-08-01 09:20:00,
2015-08-01 02:25:00,68.7,54.7,29.83,SSE,157,0.0,0.0,61,0.00,,,0.00,meteobridge,2015-08-01 09:25:00,
2015-08-01 02:30:00,68.7,54.7,29.83,SSE,157,0.0,0.0,61,0.00,,,0.00,meteobridge,2015-08-01 09:30:00,
2015-08-01 02:35:00,68.7,54.7,29.83,SSE,157,0.0,0.0,61,0.00,,,0.00,meteobridge,2015-08-01 09:35:00,
2015-08-01 02:40:00,68.9,54.9,29.83,SSE,157,0.0,0.0,61,0.00,,,0.00,meteobridge,2015-08-01 09:40:00,
2015-08-01 02:45:00,68.9,54.9,29.83,SSE,157,0.0,0.0,61,0.00,,,0.00,meteobridge,2015-08-01 09:45:00,
2015-08-01 02:50:00,68.7,54.7,29.83,SSE,157,0.0,0.0,61,0.00,,,0.00,meteobridge,2015-08-01 09:50:00,
2015-08-01 02:55:00,68.7,54.7,29.83,SSE,157,0.0,0.0,61,0.00,,,0.00,meteobridge,2015-08-01 09:55:00,
2015-08-01 03:00:00,68.7,54.7,29.83,SSE,157,0.0,0.0,61,0.00,,,0.00,meteobridge,2015-08-01 10:00:00,
2015-08-01 03:05:00,68.7,54.7,29.83,SSE,157,0.0,0.0,61,0.00,,,0.00,meteobridge,2015-08-01 10:05:00,
2015-08-01 03:10:00,68.7,54.7,29.83,SSE,157,0.0,0.0,61,0.00,,,0.00,meteobridge,2015-08-01 10:10:00,
2015-08-01 03:16:00,69.1,54.7,29.83,SSE,157,0.0,0.0,60,0.00,,,0.00,meteobridge,2015-08-01 10:16:00,
2015-08-01 03:21:00,69.3,54.9,29.83,SSE,157,0.0,0.0,60,0.00,,,0.00,meteobridge,2015-08-01 10:21:00,
2015-08-01 03:26:00,69.4,54.5,29.83,SSE,157,0.0,0.0,59,0.00,,,0.00,meteobridge,2015-08-01 10:26:00,
2015-08-01 03:31:00,69.4,54.0,29.83,SSE,157,0.0,0.0,58,0.00,,,0.00,meteobridge,2015-08-01 10:31:00,
2015-08-01 03:36:00,69.6,54.7,29.83,SSE,157,0.0,0.0,59,0.00,,,0.00,meteobridge,2015-08-01 10:36:00,
2015-08-01 03:41:00,69.6,54.7,29.83,SSE,157,0.0,0.0,59,0.00,,,0.00,meteobridge,2015-08-01 10:41:00,
2015-08-01 03:46:00,69.6,54.1,29.83,SSE,157,0.0,0.0,58,0.00,,,0.00,meteobridge,2015-08-01 10:46:00,
2015-08-01 03:51:00,69.6,54.7,29.83,SSE,157,0.0,0.0,59,0.00,,,0.00,meteobridge,2015-08-01 10:51:00,
2015-08-01 03:56:00,69.8,54.9,29.83,SSE,157,0.0,0.0,59,0.00,,,0.00,meteobridge,2015-08-01 10:56:00,
2015-08-01 04:01:00,69.6,54.7,29.83,SSE,157,0.0,0.0,59,0.00,,,0.00,meteobridge,2015-08-01 11:01:00,